Location: *
(37.4917°N, 71.5558°E)
Time: 06:51:57
(UTC+00:00)

Cosmos 2297 Rocket - Pass Details

Date: 09 April 2020
Orbit: 840 x 842 km, 71.0° (Epoch: 03 June)

Event Time Altitude Azimuth Distance (km) Brightness Sun altitude
Exits shadow 22:26:08 25° 315° (NW) 1,641 3.6 -26.3°
Drops below altitude 10° 22:30:04 10° 358° (N) 2,466 5.0 -25.7°
Sets 22:32:57 0° 11° (N) 3,405 6.0 -25.2°
